TimeEDT,TemperatureF,Dew PointF,Humidity,Sea Level PressureIn,VisibilityMPH,Wind Direction,Wind SpeedMPH,Gust SpeedMPH,PrecipitationIn,Events,Conditions,WindDirDegrees,DateUTC
12:54 AM,75.9,73.9,94,30.27,10.0,Calm,Calm,-,N/A,,Clear,0,2013-07-16 04:54:00
1:54 AM,75.9,73.9,94,30.26,10.0,Calm,Calm,-,N/A,,Clear,0,2013-07-16 05:54:00
2:54 AM,75.0,73.0,94,30.25,8.0,Calm,Calm,-,N/A,,Clear,0,2013-07-16 06:54:00
3:54 AM,73.9,72.0,93,30.26,8.0,Calm,Calm,-,N/A,,Clear,0,2013-07-16 07:54:00
4:16 AM,73.4,73.4,100,30.26,1.8,Calm,Calm,-,N/A,,Clear,0,2013-07-16 08:16:00
4:25 AM,73.4,71.6,94,30.26,3.0,Calm,Calm,-,N/A,,Clear,0,2013-07-16 08:25:00
4:54 AM,75.0,73.0,94,30.27,8.0,WNW,3.5,-,N/A,,Clear,300,2013-07-16 08:54:00
5:32 AM,73.4,71.6,94,30.28,2.0,Calm,Calm,-,N/A,,Clear,0,2013-07-16 09:32:00
5:52 AM,73.4,71.6,94,30.28,5.0,NW,3.5,-,N/A,,Clear,320,2013-07-16 09:52:00
5:54 AM,73.9,72.0,93,30.28,6.0,Variable,4.6,-,N/A,,Clear,0,2013-07-16 09:54:00
6:54 AM,75.9,73.0,91,30.28,10.0,WNW,3.5,-,N/A,,Clear,300,2013-07-16 10:54:00
7:54 AM,80.1,73.9,81,30.28,10.0,WNW,3.5,-,N/A,,Clear,300,2013-07-16 11:54:00
8:54 AM,82.9,71.1,67,30.28,10.0,Variable,3.5,-,N/A,,Clear,0,2013-07-16 12:54:00
9:54 AM,86.0,72.0,63,30.28,10.0,West,6.9,-,N/A,,Clear,260,2013-07-16 13:54:00
10:54 AM,89.1,73.9,61,30.27,10.0,WNW,4.6,-,N/A,,Clear,290,2013-07-16 14:54:00
11:54 AM,91.0,73.0,55,30.26,10.0,Calm,Calm,-,N/A,,Clear,0,2013-07-16 15:54:00
12:54 PM,91.0,73.0,55,30.25,10.0,North,3.5,-,N/A,,Clear,350,2013-07-16 16:54:00
1:54 PM,91.9,72.0,52,30.23,10.0,WSW,3.5,-,N/A,,Clear,240,2013-07-16 17:54:00
2:54 PM,93.9,72.0,49,30.22,10.0,West,3.5,-,N/A,,Partly Cloudy,260,2013-07-16 18:54:00
3:54 PM,93.0,71.1,49,30.20,10.0,Calm,Calm,-,N/A,,Partly Cloudy,0,2013-07-16 19:54:00
4:54 PM,91.9,72.0,52,30.19,10.0,Variable,3.5,-,N/A,,Scattered Clouds,0,2013-07-16 20:54:00
5:54 PM,91.0,73.0,55,30.18,10.0,WSW,3.5,-,N/A,,Clear,240,2013-07-16 21:54:00
6:54 PM,89.1,75.0,63,30.18,10.0,South,10.4,-,N/A,,Overcast,190,2013-07-16 22:54:00
7:54 PM,84.9,73.9,69,30.19,10.0,SSW,4.6,-,N/A,,Clear,200,2013-07-16 23:54:00
8:54 PM,82.0,73.9,76,30.19,10.0,SSW,5.8,-,N/A,,Clear,210,2013-07-17 00:54:00
9:54 PM,81.0,73.0,77,30.21,10.0,SSW,5.8,-,N/A,,Clear,210,2013-07-17 01:54:00
10:54 PM,80.1,72.0,76,30.22,10.0,SW,5.8,-,N/A,,Clear,220,2013-07-17 02:54:00
11:54 PM,79.0,72.0,79,30.20,10.0,WSW,3.5,-,N/A,,Partly Cloudy,250,2013-07-17 03:54:00